Location: Colorado Springs
(38.8340°N, 104.8210°W)
Time: 15:40:36
(UTC-07:00)

Vanguard 2 - All Passes

Search period start: 20 January 2018 00:00
Search period end: 30 January 2018 00:00
Orbit: 553 x 2940 km, 32.9° (Epoch: 20 January)

Date Brightness Start Highest point End Pass type
(mag) Time Alt. Az. Time Alt. Az. Time Alt. Az.
20 Jan - 01:31:10 10° S 01:36:04 20° SE 01:42:41 10° E visible
20 Jan - 03:35:56 10° SW 03:44:00 52° SSE 03:57:14 10° E visible
20 Jan - 05:43:33 10° W 05:54:20 68° S 06:10:54 10° ESE visible
20 Jan - 07:52:41 10° W 08:05:59 56° SSW 08:23:11 10° SE daylight
20 Jan - 10:04:03 10° W 10:17:23 32° SW 10:31:39 10° SSE daylight
21 Jan - 01:47:55 10° SSW 01:53:32 27° SE 02:01:44 10° E visible
21 Jan - 03:53:41 10° WSW 04:01:56 59° SSE 04:15:39 10° E visible
21 Jan - 06:01:36 10° W 06:12:31 66° S 06:29:09 10° ESE visible
21 Jan - 08:10:56 10° W 08:24:04 49° SSW 08:40:46 10° SE daylight
21 Jan - 10:23:16 10° W 10:35:11 25° SW 10:47:49 10° S daylight
22 Jan - 02:05:05 10° SSW 02:11:07 34° SSE 02:20:27 10° E visible
22 Jan - 04:11:33 10° WSW 04:19:58 63° S 04:34:01 10° E visible
22 Jan - 06:19:39 10° W 06:30:41 63° S 06:47:16 10° ESE visible
22 Jan - 08:29:18 10° W 08:42:07 42° SSW 08:58:05 10° SE daylight
22 Jan - 10:43:17 10° WSW 10:52:58 18° SW 11:03:06 10° S daylight
23 Jan - 00:20:16 10° SSE 00:21:41 11° SE 00:23:14 10° ESE night (unlit)
23 Jan - 02:22:33 10° SW 02:28:49 42° SSE 02:38:57 10° E visible
23 Jan - 04:29:28 10° WSW 04:38:03 65° S 04:52:22 10° E visible
23 Jan - 06:37:46 10° W 06:48:52 57° SSW 07:05:14 10° ESE visible
23 Jan - 08:47:52 10° W 09:00:07 35° SSW 09:15:02 10° SSE daylight
23 Jan - 11:05:29 10° WSW 11:10:45 12° SW 11:16:09 10° SSW daylight
24 Jan - 00:35:33 10° S 00:39:06 17° SE 00:43:39 10° ESE night (unlit)
24 Jan - 02:40:11 10° SW 02:46:39 50° SSE 02:57:22 10° E visible
24 Jan - 04:47:27 10° W 04:56:10 64° S 05:10:39 10° ESE visible
24 Jan - 06:55:55 10° W 07:07:00 50° SSW 07:22:59 10° SE daylight
24 Jan - 09:06:46 10° W 09:18:05 27° SW 09:31:29 10° SSE daylight
25 Jan - 00:52:17 10° SSW 00:56:38 23° SE 01:02:42 10° E visible
25 Jan - 02:57:58 10° WSW 03:04:35 56° SSE 03:15:44 10° E visible
25 Jan - 05:05:27 10° W 05:14:19 61° S 05:28:51 10° ESE visible
25 Jan - 07:14:11 10° W 07:25:06 43° SSW 07:40:28 10° SE daylight
25 Jan - 09:26:15 10° WSW 09:36:02 21° SW 09:47:15 10° S daylight
26 Jan - 01:09:30 10° SSW 01:14:16 31° SSE 01:21:20 10° E visible
26 Jan - 03:15:50 10° WSW 03:22:35 59° S 03:34:03 10° E visible
26 Jan - 05:23:30 10° W 05:32:27 56° S 05:46:54 10° ESE visible
26 Jan - 07:32:37 10° W 07:43:11 36° SSW 07:57:36 10° SSE daylight
26 Jan - 09:46:59 10° WSW 09:53:58 14° SW 10:01:37 10° SSW daylight
27 Jan - 01:27:00 10° SW 01:32:01 39° SSE 01:39:46 10° E visible
27 Jan - 03:33:45 10° WSW 03:40:38 60° S 03:52:20 10° ESE visible
27 Jan - 05:41:36 10° W 05:50:34 50° SSW 06:04:46 10° SE visible
27 Jan - 07:51:19 10° W 08:01:15 29° SSW 08:14:18 10° SSE daylight
27 Jan - 23:40:00 10° S 23:42:30 14° SE 23:45:27 10° ESE night (unlit)
28 Jan - 01:44:41 10° SW 01:49:52 46° SSE 01:58:07 10° E visible
28 Jan - 03:51:43 10° W 03:58:43 58° S 04:10:33 10° ESE visible
28 Jan - 05:59:47 10° W 06:08:42 43° SSW 06:22:24 10° SE visible
28 Jan - 08:10:28 10° WSW 08:19:19 22° SSW 08:30:23 10° S daylight
28 Jan - 23:56:43 10° SSW 00:00:07 20° SSE 00:04:29 10° ESE night (unlit)
29 Jan - 02:02:28 10° WSW 02:07:47 51° S 02:16:24 10° E visible
29 Jan - 04:09:43 10° W 04:16:48 54° S 04:28:39 10° ESE visible
29 Jan - 06:18:06 10° W 06:26:49 35° SSW 06:39:42 10° SE visible
29 Jan - 08:30:35 10° WSW 08:37:23 15° SW 08:45:21 10° S daylight
